OneWeb SL0511

operational
NORAD ID: 54129 Int'l Des: 2022-138 Owner: ONEWEBN Country: UK Constellation: oneweb
LEOCIRCULARPOLARONEWEB_TYPE

OneWeb SL0511について

説明を読み込み中...

リアルタイム位置

3D地球を読み込み中...

次回通過

高度履歴

Altitude vs Time

uPlot chart will show altitude changes over time

軌道要素

1 54129U 22138S 25307.53382225 .00000103 00000-0 22553-3 0 9998
2 54129 87.9242 349.8470 0001613 101.1496 258.9818 13.19726128147073
Epoch: Nov 3, 2025 • Age: 17 hours

現在のステータス

高度 1196.3 km
速度 7.26 km/s
衛星直下点 67.21°N, 34.69°E
打ち上げ日 Oct 22, 2022
運用期間 3 years
タイプ internet

技術仕様

分類 Payload
質量 148.00 kg
乾燥質量 140.00 kg
総質量 148.00 kg
長さ 1.30 m
直径 1.00 m
スパン 5.00 m
形状 Trapezoid+2 pan
製造者 ONEWUS
バスタイプ ARROW
フェーズステータス In Orbit
所有者/国 ONEWEBN/UK

大規模コンステレーション

Loading constellations...